DELTA 1 DEB

基本信息
目录编号:
10478
目录名称:
DELTA 1 DEB
国际标识:
1977-065EL
轨道中心:
EARTH
物体状态:
在轨
发射日期:
1977-07-14 UTC
轨道信息
数据来源: 国际轨道数据
星历时间: 2026-09-11T23:20:52+0800
半长轴: 7152.688km
偏心率: 0.0422094
轨道倾角: 29.254°
近地点辐角: 246.672°
升交点赤经: 89.244°
平近点角: 108.891°
近地点: 472.64km
远地点: 1076.462km
周期: 100.338分钟
每日圈数: 14.351552
详细信息
发射场:
AFETR
轨道高度:
LEO
数据来源:
AOE Integration Group
参考系:
TEME
时间系统:
UTC
历元类型:
SGP4
2D轨道图
3D轨道图
轨道高度分析图
轨道倾角分析图
轨道综合分析图
查看轨道综合分析图